Lincoln Laboratory Near-Earth Asteroid Research project
軌道要素
The following orbital elements are taken from MPC 57131:
Epoch 2006 Mar. 6.0 TT = JDT 2453800.5
T 2006 Feb. 27.3866 TT MPC
q 4.960662 (2000.0) P Q
z +0.000042 Peri. 113.8254 -0.4507364 -0.3406987
+/-0.000001 Node 299.5867 -0.1538566 +0.9401178
e 0.999792 Incl. 108.4145 +0.8792979 -0.0101467
From 259 observations 2005 Mar. 22-2006 June 30, mean residual 0".6.